Погода в Атертоне

Австралия     17°16′05″S   145°28′35″E
темп.,
°C
ветер,
м/с
пор.,
м/с
влажн.,
%
обл.,
%
осадки,
мм/ч
давл.,
гПа
погр.,
м
19 апреля, пн
пн1901:00+19вюв3109697 0.1 1013561
04:00+19вюв31096100 0.1 1011586
07:00+19вюв3997100 0.1 1013596
10:00+20вюв3895100 0.2 1014549
13:00+21юв389295 0.3 1012593
16:00+20юв2895100 0.6 1011606
19:00+20вюв2797100 0.1 1013644
22:00+19вюв2798100 0.3 1015524
20 апреля, вт
вт2001:00+19вюв269895 0.1 1013393
04:00+19вюв269794 0.1 1012370
07:00+19вюв269898 0.0 1014392
10:00+21в269094 0.1 1015529
13:00+23в358552 0.4 1013672
16:00+20вюв2599100 3.4 1012291
19:00+19вюв2599100 4.6 1014319
22:00+19вюв2599100 5.5 1015453
21 апреля, ср
ср2101:00+19вюв15100100 0.3 1014347
04:00+19вюв14100100 0.4 1013305
07:00+19вюв139998 0.1 1015258
10:00+22в248772 0.2 1015563
13:00+23в248585 1.3 1013819
16:00+21в2495100 3.4 1012399
19:00+19в13100100 1.1 1014172
22:00+19в13100100 2.0 1015197
22 апреля, чт
чт2201:00+19в1210086 0.1 1014173
04:00+19вюв1210082 0.1 1012180
07:00+19вюв129981 0.0 1013174
10:00+22в1285100 0.1 1013516
13:00+23св239159 2.1 1010581
16:00+22всв129586 5.3 1009246
19:00+20вюв119991 1.9 101139
22:00+19юв1199100 2.7 101244
23 апреля, пт
пт2301:00+19юв119962 0.1 101156
04:00+18ююв119999 0.1 101029
07:00+18юв239990 0.0 101290
10:00+22вюв248897 0.1 1012570
13:00+23вюв2387100 0.6 1010544
16:00+21вюв2494100 1.9 1009470
19:00+20вюв2699100 0.4 1011390
22:00+19вюв2799100 0.5 1013569